Location: Unspecified
(0.0000°N, 0.0000°E)
Time: 10:00:29

Vanguard 3 - Pass Details

Date: 09 December 2017
Orbit: 507 x 3265 km, 33.4° (Epoch: 17 March)

Event Time Altitude Azimuth Distance (km) Brightness Sun altitude
Rises 21:49:52 0° 299° (WNW) 4,657 11.2 -52.4°
Reaches altitude 10° 21:52:26 10° 297° (WNW) 3,968 10.8 -52.9°
Enters shadow 21:54:06 18° 296° (WNW) 3,561 10.4 -53.2°
Maximum altitude 22:03:51 73° 214° (SW) 2,539 - -55.0°
Exits shadow 22:16:50 24° 135° (SE) 4,838 10.9 -57.3°
Drops below altitude 10° 22:22:38 10° 132° (SE) 6,128 11.5 -58.3°
Sets 22:27:44 0° 130° (SE) 7,231 12.0 -59.2°
